Location: Courçay
(47.2523°N, 0.8761°E)
Time: 21:14:43
(UTC+00:00)

Okean 2 Rocket - Pass Details

Date: 18 November 2025
Orbit: 611 x 635 km, 82.5° (Epoch: 10 December)

Event Time Altitude Azimuth Distance (km) Brightness Sun altitude
Rises 18:48:01 0° 204° (SSW) 2,885 6.8 -25.2°
Reaches altitude 10° 18:50:19 10° 211° (SSW) 1,980 6.0 -25.6°
Maximum altitude 18:54:31 44° 284° (WNW) 861 4.1 -26.4°
Enters shadow 18:57:20 19° 349° (N) 1,479 5.1 -26.8°
